Location: Barbazan-Debat
(43.1954°N, 0.1186°E)
Time: 05:41:02
(UTC+00:00)

Daily predictions for brighter satellites

Satellite Brightness Start Highest point End
(mag) Time Altitude Azimuth Time Altitude Azimuth Time Altitude Azimuth
SL-16 R/B 4.0 00:06:04 22° WNW 00:06:48 23° NW 00:11:16 10° N
Tsikada Rocket 4.4 00:30:35 57° NNW 00:30:35 57° NNW 00:35:31 10° N
USA 215 4.2 00:29:54 10° ENE 00:34:07 34° E 00:34:07 34° E
Lacrosse 5 4.1 00:35:37 18° NW 00:37:24 22° NNW 00:41:23 10° NNE
Cosmos 2237 Rocket 3.1 00:59:39 43° ENE 00:59:39 43° ENE 01:03:51 10° NE
Cosmos 1980 4.4 01:02:35 47° ENE 01:02:35 47° ENE 01:06:51 10° NNE
IDEFIX/ARIANE 42P 4.0 01:00:05 10° NE 01:03:55 30° E 01:03:55 30° E
USA 267 4.4 01:04:09 10° E 01:10:07 40° NNE 01:16:05 10° NW
CZ-2D R/B 3.6 01:05:57 10° NE 01:10:23 28° E 01:10:23 28° E
Cosmos 2360 Rocket 4.4 01:10:54 15° WNW 01:12:08 16° NW 01:15:27 10° N
COSMOS 2428 3.4 01:13:37 46° NNW 01:13:37 46° NNW 01:18:20 10° NNE
Resurs 1-4 Rocket 3.2 01:17:44 10° NNE 01:22:17 36° E 01:22:17 36° E
Cosmos 2219 Rocket 3.9 01:23:12 22° NW 01:23:28 22° NW 01:27:47 10° N
Cosmos 2278 Rocket 2.9 01:28:31 10° NNW 01:32:30 46° NW 01:32:30 46° NW
Cosmos 1680 Rocket 3.8 01:42:34 63° ENE 01:42:34 63° ENE 01:47:19 10° NNE
Meteor 2-10 4.4 01:38:06 10° N 01:43:47 65° ENE 01:44:15 63° ESE
ADEOS II 3.1 01:42:03 10° NNE 01:46:54 37° E 01:47:24 36° ESE
ATLAS 2AS CENTAUR R/B 2.8 01:49:36 61° S 01:50:43 70° ESE 01:57:52 10° NE
Nadezhda 4 Rocket 3.9 01:50:48 71° WNW 01:50:48 71° WNW 01:56:53 10° N
Cosmos 1943 Rocket 2.2 01:46:34 10° NNW 01:51:51 77° NW 01:51:51 77° NW
Cosmos 1428 Rocket 4.3 01:53:46 74° SSE 01:54:21 85° E 02:00:37 10° N
SL-16 R/B 2.8 01:54:58 45° ESE 01:55:26 46° ESE 02:00:50 10° NE
ATLAS 5 CENTAUR R/B 2.8 01:51:04 10° NNW 01:55:57 53° NE 02:01:59 10° SE
Cosmos 2056 Rocket 3.9 01:51:58 10° NNW 01:57:21 61° ENE 01:58:36 48° ESE
Cosmos 1340 Rocket 4.1 02:01:33 37° NE 02:01:33 37° NE 02:04:22 10° NNE
Meteor 1-27 Rocket 3.6 02:01:01 80° W 02:01:03 80° W 02:06:43 10° N
CZ-2C R/B 2.8 02:00:14 58° SE 02:01:07 69° ENE 02:06:23 10° N
Sich 1 4.2 01:58:53 10° NNW 02:01:28 36° NNW 02:01:28 36° NNW
GEOS 3 Rocket 4.4 01:59:04 10° ESE 02:04:13 52° NE 02:09:22 10° NNW
GP-B 3.5 02:00:04 10° N 02:03:57 59° NE 02:03:57 59° NE
SL-16 R/B 3.3 02:00:25 17° SE 02:05:02 51° ENE 02:11:03 10° N
Cosmos 1624 Rocket 4.1 02:02:04 10° NNW 02:07:18 72° ENE 02:08:03 61° ESE
ALOS 3.7 02:05:10 10° NE 02:09:14 30° E 02:10:18 27° ESE
Cosmos 1340 4.2 02:08:44 10° N 02:10:59 31° NE 02:10:59 31° NE
NPP 3.6 02:06:41 10° N 02:12:03 69° WNW 02:12:10 68° W
Cosmos 1805 4.3 02:10:41 10° N 02:13:21 41° NNE 02:13:21 41° NNE
USA 215 3.5 02:12:46 10° NE 02:19:12 63° NNW 02:21:28 41° W
Lacrosse 5 4.5 02:18:39 10° NW 02:22:03 17° N 02:25:26 10° NE
COSMOS 2441 4.2 02:19:20 10° NNE 02:24:14 88° WNW 02:24:29 81° SSW
Cosmos 1666 Rocket 3.9 02:20:10 10° N 02:24:35 63° E 02:25:08 57° ESE
Cosmos 1553 Rocket 4.4 02:19:26 10° N 02:25:37 59° E 02:30:02 19° SSE
Meteor 1-11 Rocket 4.5 02:20:52 10° NNW 02:25:03 35° WNW 02:25:03 35° WNW
NOSS 3-1 (C) 4.1 02:22:13 10° NW 02:29:43 88° NE 02:38:46 10° SE
ATLAS 3B R/B 3.6 02:28:50 10° NNW 02:36:33 57° NE 02:44:10 10° SE
MSX 4.1 02:31:59 10° N 02:37:33 51° WNW 02:38:35 45° WSW
Cosmos 2026 Rocket 4.1 02:37:39 47° SW 02:39:05 58° W 02:45:24 10° N
Cosmos 1371 Rocket 4.0 02:34:31 10° NNW 02:39:42 58° WSW 02:39:56 57° WSW
Cosmos 1656 Rocket 4.0 02:35:47 10° NNW 02:41:10 63° ENE 02:46:32 10° SE
Cosmos 1328 Rocket 3.5 02:41:11 69° S 02:41:42 87° E 02:46:09 10° N
Cosmos 1626 2.5 02:42:31 53° ENE 02:42:31 53° ENE 02:45:20 10° NNE
Cosmos 2237 Rocket 3.5 02:41:27 24° WNW 02:42:42 26° NW 02:47:27 10° N
USA 308 4.3 02:42:30 23° NW 02:43:12 24° NNW 02:46:25 10° NE
ISS -1.1 02:44:09 13° ESE 02:44:09 13° ESE 02:45:20 10° ESE
Cosmos 1092 Rocket 4.2 02:42:40 45° WSW 02:43:58 52° WNW 02:50:00 10° N
IDEFIX/ARIANE 42P 3.3 02:39:30 10° N 02:44:10 35° WNW 02:44:41 34° W
Cosmos 2344 4.5 02:35:51 10° NW 02:44:23 46° WSW 02:56:02 10° S
Cosmos 2369 Rocket 2.9 02:40:04 10° NNW 02:45:35 54° ENE 02:51:02 10° SE
Cosmos 1151 Rocket 4.0 02:47:21 33° WNW 02:47:21 33° WNW 02:50:51 10° N
Cosmos 921 Rocket 3.4 02:48:29 45° WNW 02:48:30 45° WNW 02:52:43 10° N
CZ-2C R/B 3.2 02:45:07 10° N 02:50:25 64° WNW 02:51:58 45° SW
CZ-2D R/B 2.7 02:45:37 10° N 02:50:39 41° WNW 02:51:41 37° W
Cosmos 1975 3.0 02:47:05 10° NNW 02:50:23 54° NW 02:50:23 54° NW
USA 267 3.1 02:46:17 10° SE 02:52:47 82° SW 02:59:21 10° NW
Cosmos 1633 Rocket 2.9 02:49:50 10° NNW 02:54:11 75° W 02:55:03 55° SSW
SAR-Lupe-1 4.1 02:50:39 10° N 02:54:03 65° NW 02:54:03 65° NW
Cosmos 2297 3.7 02:48:28 10° NNW 02:54:16 85° ENE 03:00:00 10° SSE
AQUA 3.9 02:51:04 10° N 02:55:45 60° WNW 02:56:42 49° WSW
SAR-Lupe-4 3.8 02:54:56 10° N 02:58:13 54° WNW 02:58:13 54° WNW
Resurs 1-4 Rocket 3.1 02:57:42 10° N 03:02:17 31° WNW 03:03:21 28° W
Cosmos 494 Rocket 4.0 03:02:00 43° SW 03:03:34 65° WNW 03:08:40 10° NNE
Cosmos 1766 3.2 03:01:57 10° N 03:05:39 74° E 03:07:19 30° SSE
Meteor 2-4 Rocket 3.9 03:04:17 38° SW 03:06:01 52° WNW 03:11:33 10° N
Iridium 51 4.3 03:05:13 38° SSE 03:06:14 59° E 03:09:35 10° N
Cosmos 1943 3.7 03:03:45 22° S 03:07:21 55° ESE 03:12:54 10° NNE
Delta 2 Rocket 4.4 03:10:33 33° SSW 03:11:12 35° S 03:15:44 10° ESE
Cosmos 1048 Rocket 4.0 03:09:34 35° SSW 03:11:49 75° WNW 03:17:04 10° NNE
FENGYUN 3A 4.1 03:07:16 10° N 03:12:25 45° WNW 03:14:21 32° WSW
UNK 3.6 03:10:15 27° S 03:12:41 67° WSW 03:17:18 10° NNW
USA 290 4.4 03:12:07 10° NW 03:13:01 16° NW 03:13:01 16° NW
Cosmos 2263 4.5 03:09:36 10° NNW 03:15:15 69° ENE 03:20:53 10° SSE
Meteor 2-12 Rocket 4.5 03:16:17 27° SSW 03:19:33 61° W 03:25:35 10° N
CZ-2C R/B 3.1 03:17:18 10° NNE 03:22:23 55° E 03:27:21 10° S
USA 306 3.8 03:22:03 23° S 03:23:30 31° SE 03:26:45 10° ENE
ADEOS II 3.1 03:21:53 10° N 03:26:23 30° WNW 03:28:17 23° W
Cosmos 468 4.4 03:23:30 26° SSW 03:26:29 76° WNW 03:31:45 10° NNE
EO 1 Delta rocket 4.2 03:23:22 10° N 03:27:52 49° WNW 03:30:33 25° SW
Cosmos 1417 Rocket 4.5 03:23:27 10° NNW 03:29:47 70° W 03:36:05 10° S
Cosmos 1707 2.9 03:27:10 17° S 03:29:52 64° E 03:33:32 10° NNE
Cosmos 1842 3.0 03:32:03 24° SSW 03:34:10 79° W 03:37:56 10° N
IRS-1D 4.0 03:29:30 10° NNE 03:34:38 62° ESE 03:39:51 10° S
Cosmos 1943 Rocket 4.2 03:33:02 10° WNW 03:33:18 10° WNW 03:33:18 10° WNW
CZ-4 R/B 3.7 03:30:52 10° N 03:35:33 72° WNW 03:38:49 19° SSW
Cosmos 2266 Rocket 3.9 03:32:14 15° SSW 03:37:19 71° W 03:43:21 10° N
Cosmos 1110 Rocket 4.0 03:32:05 10° NNW 03:37:19 65° WSW 03:42:33 10° S
Cosmos 1603 4.0 03:34:08 12° S 03:39:17 64° ESE 03:44:52 10° NNE
SL-16 R/B 3.3 03:36:50 19° W 03:39:43 29° NW 03:44:38 10° N
ATLAS 5 CENTAUR R/B 3.0 03:35:16 10° WNW 03:39:52 29° WSW 03:45:14 10° S
YAOGAN 6 2.6 03:36:41 10° NNE 03:39:58 67° E 03:42:44 14° S
SL-08 ROCKET BODY 4.3 03:35:18 12° SSW 03:40:52 76° W 03:46:58 10° N
CZ-2C R/B 4.2 03:41:43 16° W 03:41:49 16° W 03:45:02 10° NW
ATLAS 2AS CENTAUR R/B 3.9 03:37:01 15° W 03:42:11 33° NW 03:48:31 10° NNE
GEOS 3 Rocket 4.3 03:37:39 10° S 03:42:20 31° WSW 03:47:02 10° NW
Cosmos 1515 Rocket 4.0 03:40:24 23° SW 03:42:47 45° WNW 03:47:03 10° N
S3M 4.0 03:37:14 10° NNW 03:43:23 66° W 03:49:35 10° S
Cosmos 1452 Rocket 3.6 03:40:37 10° NNW 03:45:42 52° WSW 03:50:46 10° S
ALOS 3.3 03:42:23 10° N 03:46:22 29° WNW 03:48:38 20° WSW
Cosmos 1869 Rocket 3.7 03:44:06 10° N 03:48:27 75° E 03:52:44 10° SSE
SL-16 R/B 3.4 03:45:30 18° SW 03:48:51 27° W 03:54:04 10° NW
Cosmos 1470 Rocket 4.4 03:45:39 10° NNW 03:49:32 30° W 03:52:04 18° SW
Envisat 3.1 03:46:17 10° N 03:51:17 61° WNW 03:55:52 12° SSW
Cosmos 2228 Rocket 3.9 03:58:08 10° S 04:02:23 51° E 04:06:39 10° NNE
Cosmos 1331 Rocket 4.4 03:57:29 10° NNW 04:02:27 42° WSW 04:07:22 10° S
NOSS 3-1 (A) 4.3 03:55:21 10° NW 04:02:46 54° WSW 04:11:31 10° SSE
Cosmos 1674 3.4 04:01:58 18° SW 04:03:48 28° WNW 04:06:51 10° NNW
Meteor 1-22 Rocket 4.3 04:00:42 10° N 04:06:14 78° E 04:11:34 10° SSE
Lacrosse 5 3.7 04:01:48 10° NW 04:06:25 32° NNE 04:11:00 10° E
Meteor 1-13 Rocket 4.3 04:01:02 10° SSW 04:06:47 73° W 04:12:41 10° N
CZ-3 R/B 4.0 03:50:13 14° SW 04:10:32 37° S 04:18:41 10° ESE
USA 229 DEB 4.2 04:05:04 10° NW 04:12:37 84° NE 04:20:47 10° SE
USA 229 4.2 04:05:10 10° NW 04:12:42 83° NE 04:20:50 10° SE
Cosmos 1908 3.1 04:09:32 10° NNW 04:13:05 54° W 04:16:36 10° S
USA 305 1.1 04:14:01 19° SSW 04:14:56 48° SE 04:16:49 10° ENE
DMSP B5D2-2 4.1 04:10:10 10° S 04:15:18 63° W 04:20:28 10° NNW
Cosmos 1933 Rocket 4.4 04:12:35 10° NNW 04:16:22 30° W 04:20:07 10° SSW
Cosmos 1470 3.5 04:14:52 10° NNW 04:18:12 29° W 04:21:29 10° SSW
Meteor 1-15 Rocket 4.3 04:12:35 10° NNW 04:18:31 82° W 04:24:17 10° S
Cosmos 1733 Rocket 3.8 04:14:35 10° N 04:18:52 57° E 04:23:05 10° SSE
ISS -3.8 04:17:01 12° WSW 04:20:00 84° NNW 04:23:20 10° NE
Cosmos 1862 Rocket 4.3 04:17:22 10° S 04:21:40 57° E 04:25:56 10° NNE
Cosmos 1655 Rocket 4.4 04:16:52 10° SSW 04:22:47 45° WNW 04:28:46 10° N
USA 276 2.6 04:22:02 10° SW 04:24:42 44° SE 04:27:29 10° ENE
ATLAS 3B R/B 3.4 04:20:02 10° NW 04:27:06 38° WSW 04:34:01 10° S
Cosmos 1300 3.3 04:24:46 10° N 04:28:19 57° E 04:31:50 10° SSE
Cosmos 2315 Rocket 4.4 04:23:18 10° NNW 04:29:04 43° W 04:34:52 10° SSW
Cosmos 2369 Rocket 3.3 04:24:57 10° NW 04:29:09 22° W 04:33:19 10° SSW
Aureole 3 4.3 04:24:16 10° S 04:30:16 80° E 04:35:06 10° N
BREEZE-M DEB (TANK) 3.2 04:26:44 10° W 04:30:25 29° NNW 04:32:27 10° NE
Gbstr 26 Del rocket 3.1 04:26:44 10° NW 04:30:40 66° NNE 04:34:21 10° ESE
Cosmos 1441 Rocket 3.3 04:27:51 10° N 04:31:36 80° ENE 04:35:18 10° SSE
Cosmos 614 Rocket 4.1 04:30:37 10° SSW 04:35:39 62° WNW 04:40:47 10° NNE
USA 267 4.3 04:31:38 10° S 04:36:24 21° WSW 04:41:12 10° WNW
